TimeMDT,TemperatureF,Dew PointF,Humidity,Sea Level PressureIn,VisibilityMPH,Wind Direction,Wind SpeedMPH,Gust SpeedMPH,PrecipitationIn,Events,Conditions,WindDirDegrees,DateUTC
12:53 AM,36.0,26.1,67,30.29,10.0,NE,3.5,-,N/A,,Clear,50,2012-10-12 06:53:00
1:53 AM,32.0,25.0,75,30.29,10.0,NNE,6.9,-,N/A,,Clear,30,2012-10-12 07:53:00
2:53 AM,33.1,24.1,70,30.27,10.0,NE,3.5,-,N/A,,Clear,50,2012-10-12 08:53:00
3:53 AM,30.9,25.0,79,30.25,10.0,NE,3.5,-,N/A,,Clear,40,2012-10-12 09:53:00
4:53 AM,34.0,25.0,70,30.24,10.0,NE,4.6,-,N/A,,Overcast,50,2012-10-12 10:53:00
5:53 AM,36.0,24.1,62,30.25,10.0,East,6.9,-,N/A,,Overcast,90,2012-10-12 11:53:00
6:53 AM,36.0,25.0,64,30.28,10.0,SE,6.9,-,N/A,,Overcast,140,2012-10-12 12:53:00
7:53 AM,37.0,25.0,62,30.24,10.0,ESE,4.6,-,N/A,,Overcast,110,2012-10-12 13:53:00
8:53 AM,37.9,25.0,60,30.25,10.0,SSE,9.2,-,N/A,,Overcast,150,2012-10-12 14:53:00
9:08 AM,39.2,26.6,61,30.23,10.0,South,9.2,-,N/A,,Overcast,170,2012-10-12 15:08:00
9:53 AM,39.9,27.0,60,30.23,10.0,SE,4.6,-,N/A,,Overcast,140,2012-10-12 15:53:00
10:00 AM,39.2,26.6,61,30.20,10.0,SSE,5.8,-,N/A,,Overcast,160,2012-10-12 16:00:00
10:53 AM,43.0,28.9,58,30.22,10.0,South,10.4,-,N/A,,Overcast,170,2012-10-12 16:53:00
11:53 AM,44.1,30.0,58,30.19,10.0,SSE,12.7,-,N/A,,Overcast,160,2012-10-12 17:53:00
12:53 PM,46.9,32.0,56,30.17,10.0,South,12.7,20.7,N/A,,Overcast,190,2012-10-12 18:53:00
1:48 PM,51.8,33.8,50,30.09,10.0,South,19.6,25.3,N/A,,Scattered Clouds,170,2012-10-12 19:48:00
1:53 PM,52.0,35.1,53,30.10,10.0,South,17.3,25.3,N/A,,Partly Cloudy,170,2012-10-12 19:53:00
2:53 PM,55.0,36.0,49,30.04,10.0,South,16.1,-,N/A,,Clear,180,2012-10-12 20:53:00
3:53 PM,57.2,37.4,48,29.99,10.0,South,17.3,-,N/A,,Clear,170,2012-10-12 21:53:00
4:53 PM,54.0,37.0,53,29.99,10.0,SSE,21.9,-,N/A,,Clear,160,2012-10-12 22:53:00
5:53 PM,52.0,37.0,57,29.98,10.0,SSE,19.6,-,N/A,,Clear,160,2012-10-12 23:53:00
6:53 PM,50.0,39.0,66,29.99,10.0,SSE,19.6,-,N/A,,Clear,160,2012-10-13 00:53:00
7:53 PM,48.2,39.2,71,29.97,10.0,South,16.1,-,N/A,,Clear,170,2012-10-13 01:53:00
8:53 PM,48.0,39.0,71,29.95,10.0,South,12.7,-,N/A,,Clear,170,2012-10-13 02:53:00
9:53 PM,50.0,39.9,68,29.93,10.0,South,21.9,29.9,N/A,,Mostly Cloudy,180,2012-10-13 03:53:00
10:53 PM,48.0,42.1,80,29.85,10.0,South,26.5,35.7,0.00,,Mostly Cloudy,170,2012-10-13 04:53:00
11:53 PM,48.9,46.0,90,29.85,10.0,South,20.7,29.9,N/A,,Clear,180,2012-10-13 05:53:00